Language: 


Des rapports , des résumés tant et plus, au choix de chacun....


Données Historiques de Météogheer
Journalier Rapport pour Février 09, 2018 Unitée:  Impériale    Métrique   Les deux
Suivant Jour »
Journalier Hebdomadaire Mensuel Annuel Sur mesure
  Max: Min: Moyenne:
Température: 37 °F 32 °F 33.8 °F
Point de rosée: 37.4 °F 26.6 °F 32.4 °F
Humidité: 98% 77% 92%
Vent: 13.4mph 0mph 6mph
Rafales: 17.2mph - -
Vent- - SSW
Pression: 30 in 29.8 in -
Pluie: 0.2 in    
Historical Graphs
 
 
Données tabulaires pour Février 09, 2018
Heure Température Point de rosée Pression Vent Vent Rafales Humidité Pluie Taux (Horaire) Conditions
00:02 33.3 °F 30.2 °F 30 in SSW 5.4 mph 5.4 mph 88% 0 in
00:07 33.3 °F 30.2 °F 30 in SSW 5.4 mph 5.4 mph 88% 0 in
00:12 33.1 °F 30.2 °F 30 in SSW 5.4 mph 5.4 mph 88% 0 in
00:17 33.1 °F 30.2 °F 30 in SSW 7.2 mph 7.2 mph 88% 0 in
00:22 33.1 °F 30.2 °F 30 in SSW 5.6 mph 7.2 mph 88% 0 in
00:27 32.9 °F 30.2 °F 30 in South 8.9 mph 8.9 mph 88% 0 in
00:32 32.9 °F 30.2 °F 30 in South 8.9 mph 8.9 mph 88% 0 in
00:37 32.9 °F 30.2 °F 30 in SSW 6.3 mph 8.9 mph 88% 0 in
00:42 32.9 °F 30.2 °F 30 in SSW 6.3 mph 8.9 mph 88% 0 in
00:47 32.9 °F 30.2 °F 30 in SSW 7.8 mph 7.8 mph 88% 0 in
00:52 32.9 °F 30.2 °F 30 in SSW 7.8 mph 7.8 mph 88% 0 in
00:57 32.9 °F 30.2 °F 30 in SSW 6 mph 7.8 mph 88% 0 in
01:02 32.7 °F 30.2 °F 30 in SSW 6 mph 7.8 mph 88% 0 in
01:07 32.7 °F 30.2 °F 30 in SSW 6 mph 6 mph 89% 0 in
01:12 32.9 °F 30.2 °F 30 in SSW 6 mph 6 mph 89% 0 in
01:18 32.9 °F 30.2 °F 30 in SSW 6 mph 6 mph 89% 0 in
01:23 32.9 °F 30.2 °F 30 in SSW 6 mph 6 mph 89% 0 in
01:28 32.9 °F 30.2 °F 30 in SSW 6 mph 6 mph 89% 0 in
01:33 32.9 °F 30.2 °F 30 in SSW 6 mph 6 mph 89% 0 in
01:38 32.7 °F 30.2 °F 30 in SSW 6 mph 6 mph 89% 0 in
01:43 32.7 °F 30.2 °F 30 in SSW 6 mph 6 mph 89% 0 in
01:48 32.7 °F 30.2 °F 30 in SSW 6 mph 6 mph 88% 0 in
01:53 32.7 °F 30.2 °F 30 in SSW 6.5 mph 6.5 mph 88% 0 in
01:58 32.7 °F 30.2 °F 30 in SSW 6.5 mph 6.5 mph 88% 0 in
02:03 32.7 °F 30.2 °F 29.9 in SSW 6.5 mph 6.5 mph 88% 0 in
02:08 32.7 °F 30.2 °F 29.9 in SSW 6.5 mph 6.5 mph 88% 0 in
02:13 32.7 °F 30.2 °F 29.9 in SSW 6.5 mph 6.5 mph 88% 0 in
02:18 32.7 °F 30.2 °F 29.9 in SSW 6.5 mph 6.5 mph 88% 0 in
02:23 32.7 °F 30.2 °F 29.9 in SSW 6.5 mph 6.5 mph 88% 0 in
02:28 32.7 °F 30.2 °F 29.9 in SSW 6.5 mph 6.5 mph 88% 0 in
02:33 32.7 °F 30.2 °F 29.9 in SSW 6.5 mph 6.5 mph 88% 0 in
02:38 32.7 °F 30.2 °F 29.9 in South 3.8 mph 3.8 mph 88% 0 in
02:43 32.7 °F 30.2 °F 29.9 in South 3.8 mph 3.8 mph 88% 0 in
02:48 32.9 °F 30.2 °F 29.9 in South 3.8 mph 3.8 mph 87% 0 in
02:53 32.9 °F 30.2 °F 29.9 in SSW 8.1 mph 8.1 mph 87% 0 in
02:59 32.9 °F 30.2 °F 29.9 in SSW 5.4 mph 8.1 mph 87% 0 in
03:04 32.9 °F 30.2 °F 29.9 in South 7.6 mph 8.1 mph 86% 0 in
03:09 32.7 °F 30.2 °F 29.9 in South 7.6 mph 8.1 mph 86% 0 in
03:14 32.7 °F 30.2 °F 29.9 in South 4.9 mph 10.7 mph 86% 0 in
03:19 32.7 °F 30.2 °F 29.9 in South 10.3 mph 10.7 mph 86% 0 in
03:24 32.7 °F 30.2 °F 29.9 in Calm   10.3 mph 85% 0 in
03:29 32.7 °F 30.2 °F 29.9 in SSW 9.8 mph 10.3 mph 85% 0 in
03:34 32.7 °F 30.2 °F 29.9 in SSW 7.4 mph 10.1 mph 85% 0 in
03:39 32.7 °F 30.2 °F 29.9 in SSW 7.4 mph 9.8 mph 85% 0 in
03:44 32.7 °F 30.2 °F 29.9 in South 7.8 mph 10.7 mph 85% 0 in
03:49 32.7 °F 30.2 °F 29.9 in SSE 5.4 mph 11.4 mph 86% 0 in
03:54 32.5 °F 30.2 °F 29.9 in SSW 6.5 mph 11.4 mph 86% 0 in
03:59 32.5 °F 30.2 °F 29.9 in SSE 6.3 mph 10.1 mph 86% 0 in
04:04 32.5 °F 30.2 °F 29.9 in SSE 11.9 mph 11.9 mph 86% 0 in
04:09 32.5 °F 30.2 °F 29.9 in South 10.3 mph 11.9 mph 86% 0 in
04:14 32.5 °F 30.2 °F 29.9 in South 6.5 mph 11.9 mph 86% 0 in
04:19 32.5 °F 30.2 °F 29.9 in SSW 9.6 mph 9.6 mph 86% 0 in
04:24 32.5 °F 30.2 °F 29.9 in SSW 7.6 mph 9.6 mph 87% 0 in
04:29 32.5 °F 30.2 °F 29.9 in South 7.2 mph 10.1 mph 87% 0 in
04:34 32.5 °F 30.2 °F 29.9 in SSE 8.1 mph 12.8 mph 87% 0 in
04:39 32.5 °F 30.2 °F 29.9 in SSW 7.4 mph 12.8 mph 86% 0 in
04:45 32.4 °F 28.4 °F 29.9 in South 8.7 mph 10.1 mph 86% 0 in
04:50 32.4 °F 28.4 °F 29.9 in South 7.8 mph 10.1 mph 86% 0 in
04:55 32.4 °F 28.4 °F 29.9 in SSW 5.6 mph 10.5 mph 86% 0 in
05:00 32.4 °F 28.4 °F 29.9 in SSE 8.7 mph 10.5 mph 86% 0 in
05:05 32.4 °F 28.4 °F 29.9 in SSW 6.5 mph 8.7 mph 86% 0 in
05:10 32.4 °F 28.4 °F 29.9 in SSE 10.1 mph 10.3 mph 86% 0 in
05:15 32.4 °F 28.4 °F 29.9 in SSW 6.5 mph 11.9 mph 86% 0 in
05:20 32.4 °F 28.4 °F 29.9 in South 7.6 mph 11.9 mph 86% 0 in
05:25 32.4 °F 28.4 °F 29.9 in South 10.7 mph 10.7 mph 85% 0 in
05:30 32.4 °F 28.4 °F 29.8 in South 6.7 mph 10.7 mph 85% 0 in
05:35 32.4 °F 28.4 °F 29.8 in SSW 8.1 mph 10.7 mph 84% 0 in
05:40 32.2 °F 28.4 °F 29.8 in South 8.1 mph 8.1 mph 84% 0 in
05:45 32.2 °F 28.4 °F 29.9 in SSW 11.4 mph 11.4 mph 84% 0 in
05:50 32.2 °F 28.4 °F 29.9 in South 7.4 mph 11.4 mph 83% 0 in
05:55 32.2 °F 28.4 °F 29.9 in South 9.8 mph 11.4 mph 83% 0 in
06:00 32.2 °F 28.4 °F 29.9 in SSW 7.8 mph 10.7 mph 83% 0 in
06:05 32.2 °F 28.4 °F 29.9 in SSW 7.8 mph 10.7 mph 83% 0 in
06:10 32.2 °F 28.4 °F 29.9 in SSW 6.9 mph 12.1 mph 83% 0 in
06:15 32.2 °F 28.4 °F 29.9 in South 6.5 mph 13.4 mph 83% 0 in
06:20 32.2 °F 28.4 °F 29.9 in SSE 7.4 mph 13.4 mph 83% 0 in
06:25 32.2 °F 28.4 °F 29.9 in SSE 7.6 mph 12.5 mph 82% 0 in
06:30 32.2 °F 28.4 °F 29.9 in SSE 6.3 mph 12.3 mph 82% 0 in
06:35 32 °F 26.6 °F 29.9 in South 8.7 mph 12.3 mph 82% 0 in
06:40 32 °F 26.6 °F 29.9 in South 7.2 mph 12.3 mph 82% 0 in
06:45 32 °F 26.6 °F 29.9 in South 8.1 mph 11.9 mph 82% 0 in
06:50 32 °F 26.6 °F 29.9 in SSW 5.4 mph 11.9 mph 82% 0 in
06:55 32 °F 26.6 °F 29.9 in SSW 7.8 mph 11.9 mph 82% 0 in
07:00 32.2 °F 28.4 °F 29.8 in SSE 7.2 mph 8.1 mph 82% 0 in
07:05 32.2 °F 28.4 °F 29.8 in SSE 6 mph 12.3 mph 82% 0 in
07:10 32.4 °F 26.6 °F 29.8 in South 12.8 mph 12.8 mph 81% 0 in
07:15 32.4 °F 26.6 °F 29.8 in South 10.1 mph 12.8 mph 80% 0 in
07:20 32.4 °F 26.6 °F 29.8 in South 6.3 mph 12.8 mph 80% 0 in
07:25 32.4 °F 26.6 °F 29.8 in SSW 13.4 mph 13.4 mph 80% 0 in
07:30 32.5 °F 26.6 °F 29.8 in South 8.7 mph 13.4 mph 79% 0 in
07:35 32.5 °F 26.6 °F 29.8 in South 8.7 mph 13.4 mph 79% 0 in
07:40 32.5 °F 26.6 °F 29.8 in South 8.1 mph 12.8 mph 79% 0 in
07:45 32.5 °F 26.6 °F 29.8 in SSW 5.8 mph 12.8 mph 79% 0 in
07:50 32.5 °F 26.6 °F 29.8 in SSE 5.8 mph 10.3 mph 78% 0 in
07:55 32.5 °F 26.6 °F 29.8 in SW 12.5 mph 12.5 mph 78% 0 in
08:00 32.5 °F 26.6 °F 29.8 in SSE 8.5 mph 12.5 mph 78% 0 in
08:05 32.5 °F 26.6 °F 29.8 in SSE 8.5 mph 12.5 mph 78% 0 in
08:10 32.7 °F 26.6 °F 29.8 in SSE 8.5 mph 8.5 mph 78% 0 in
08:15 32.7 °F 26.6 °F 29.8 in SSW 13 mph 13 mph 78% 0 in
08:20 32.7 °F 26.6 °F 29.8 in SSW 13 mph 13 mph 78% 0 in
08:25 32.7 °F 26.6 °F 29.8 in SSW 11.9 mph 14.5 mph 78% 0 in
08:30 32.7 °F 26.6 °F 29.8 in South 10.7 mph 17.2 mph 77% 0 in
08:35 32.5 °F 26.6 °F 29.8 in SSW 6 mph 17.2 mph 77% 0 in
08:41 32.7 °F 26.6 °F 29.8 in SSW 10.1 mph 11 mph 78% 0 in
08:46 32.7 °F 26.6 °F 29.8 in SSW 6.5 mph 11 mph 77% 0 in
08:51 32.7 °F 26.6 °F 29.8 in SSW 6.5 mph 10.1 mph 78% 0 in
08:56 32.7 °F 26.6 °F 29.8 in SSW 6.5 mph 6.5 mph 78% 0 in
09:01 32.9 °F 26.6 °F 29.8 in SSW 6.5 mph 6.5 mph 78% 0 in
09:06 32.9 °F 26.6 °F 29.8 in SSW 10.5 mph 10.5 mph 78% 0 in
09:11 32.7 °F 26.6 °F 29.8 in SSW 7.8 mph 12.5 mph 78% 0 in
09:16 32.7 °F 26.6 °F 29.8 in SSW 7.8 mph 12.5 mph 79% 0 in
09:21 32.5 °F 28.4 °F 29.8 in SSW 7.8 mph 7.8 mph 80% 0 in
09:26 32.4 °F 28.4 °F 29.8 in SSW 7.6 mph 7.8 mph 82% 0 in
09:31 32.2 °F 28.4 °F 29.8 in SSW 7.6 mph 7.8 mph 84% 0 in
09:36 32.2 °F 28.4 °F 29.8 in SSE 6.5 mph 7.6 mph 86% 0 in
09:41 32.2 °F 30.2 °F 29.8 in SSE 6.5 mph 7.6 mph 87% 0 in
09:46 32.2 °F 30.2 °F 29.8 in SSE 6.5 mph 6.5 mph 88% 0 in
09:51 32.4 °F 30.2 °F 29.8 in SSE 6.5 mph 6.5 mph 89% 0 in
09:56 32.4 °F 30.2 °F 29.8 in SSE 6.5 mph 6.5 mph 88% 0 in
10:01 32.5 °F 30.2 °F 29.8 in SSE 6.5 mph 6.5 mph 89% 0 in
10:06 32.5 °F 30.2 °F 29.8 in SSE 6.5 mph 6.5 mph 89% 0 in
10:11 32.5 °F 30.2 °F 29.8 in SSE 6.5 mph 6.5 mph 89% 0 in
10:17 32.4 °F 30.2 °F 29.8 in SSE 6.5 mph 6.5 mph 90% 0 in
10:22 32.4 °F 30.2 °F 29.8 in SSE 6.5 mph 6.5 mph 91% 0 in
10:27 32.4 °F 30.2 °F 29.8 in SSE 6.5 mph 6.5 mph 91% 0 in
10:32 32.4 °F 30.2 °F 29.8 in SSE 6.5 mph 6.5 mph 92% 0 in
10:37 32.4 °F 30.2 °F 29.8 in SSE 6.5 mph 6.5 mph 92% 0 in
10:42 32.4 °F 30.2 °F 29.8 in SSE 6.5 mph 6.5 mph 92% 0 in
10:47 32.4 °F 30.2 °F 29.8 in SSE 6.5 mph 6.5 mph 92% 0 in
10:52 32.5 °F 30.2 °F 29.8 in SSE 6.5 mph 6.5 mph 92% 0 in
10:57 32.5 °F 30.2 °F 29.8 in SSE 6.5 mph 6.5 mph 92% 0 in
11:02 32.5 °F 32 °F 29.8 in SSE 6.5 mph 6.5 mph 93% 0 in
11:07 32.5 °F 32 °F 29.8 in SSE 6.5 mph 6.5 mph 93% 0 in
11:12 32.5 °F 32 °F 29.8 in SSE 6.5 mph 6.5 mph 94% 0 in
11:17 32.5 °F 32 °F 29.8 in SSE 6.5 mph 6.5 mph 94% 0 in
11:22 32.5 °F 32 °F 29.8 in SSE 6.5 mph 6.5 mph 95% 0 in
11:27 32.7 °F 32 °F 29.8 in SSE 6.5 mph 6.5 mph 96% 0 in
11:32 32.7 °F 32 °F 29.8 in SSE 6.5 mph 6.5 mph 96% 0 in
11:37 32.7 °F 32 °F 29.8 in SSE 6.5 mph 6.5 mph 96% 0 in
11:42 32.7 °F 32 °F 29.8 in SSE 6.5 mph 6.5 mph 96% 0 in
11:47 32.9 °F 33.8 °F 29.8 in SSE 6.5 mph 6.5 mph 96% 0 in
11:52 32.9 °F 33.8 °F 29.8 in SSE 6.5 mph 6.5 mph 97% 0 in
11:57 33.1 °F 33.8 °F 29.8 in SSE 6.5 mph 6.5 mph 97% 0 in
12:02 33.3 °F 33.8 °F 29.8 in SSE 6.5 mph 6.5 mph 97% 0 in
12:07 33.4 °F 33.8 °F 29.8 in SSE 6.5 mph 6.5 mph 97% 0 in
12:12 33.4 °F 33.8 °F 29.8 in SSE 6.5 mph 6.5 mph 97% 0 in
12:18 33.4 °F 33.8 °F 29.8 in SSE 6.5 mph 6.5 mph 96% 0 in
12:23 33.4 °F 33.8 °F 29.8 in SSE 6.5 mph 6.5 mph 96% 0 in
12:28 33.4 °F 33.8 °F 29.8 in SSE 6.5 mph 6.5 mph 96% 0 in
12:33 33.4 °F 33.8 °F 29.8 in SSE 6.5 mph 6.5 mph 96% 0 in
12:38 33.3 °F 32 °F 29.8 in SSE 6.5 mph 6.5 mph 95% 0 in
12:43 33.3 °F 32 °F 29.8 in SSE 6.5 mph 6.5 mph 95% 0 in
12:48 33.4 °F 33.8 °F 29.8 in SSE 6.5 mph 6.5 mph 96% 0 in
12:53 33.3 °F 33.8 °F 29.8 in SSE 6.5 mph 6.5 mph 96% 0 in
12:58 33.4 °F 33.8 °F 29.8 in SSE 6.5 mph 6.5 mph 96% 0 in
13:03 33.6 °F 33.8 °F 29.8 in SSE 6.5 mph 6.5 mph 96% 0 in
13:08 33.6 °F 33.8 °F 29.8 in SSE 6.5 mph 6.5 mph 96% 0 in
13:13 33.6 °F 33.8 °F 29.8 in SSE 6.5 mph 6.5 mph 96% 0 in
13:18 33.6 °F 33.8 °F 29.8 in SSE 6.5 mph 6.5 mph 97% 0 in
13:23 33.8 °F 33.8 °F 29.8 in SSE 6.5 mph 6.5 mph 96% 0 in
13:28 33.8 °F 33.8 °F 29.8 in SSE 6.5 mph 6.5 mph 97% 0 in
13:33 33.8 °F 33.8 °F 29.8 in SSE 6.5 mph 6.5 mph 97% 0 in
13:38 33.8 °F 33.8 °F 29.8 in SSE 6.5 mph 6.5 mph 97% 0 in
13:43 33.8 °F 33.8 °F 29.8 in SSE 6.5 mph 6.5 mph 97% 0 in
13:49 33.8 °F 33.8 °F 29.8 in SSE 6.5 mph 6.5 mph 97% 0 in
13:54 33.8 °F 33.8 °F 29.8 in SSE 6.5 mph 6.5 mph 97% 0 in
13:59 34 °F 33.8 °F 29.8 in SSE 6.5 mph 6.5 mph 97% 0 in
14:04 34 °F 33.8 °F 29.8 in SSE 6.5 mph 6.5 mph 97% 0 in
14:09 34 °F 33.8 °F 29.8 in SSE 6.5 mph 6.5 mph 97% 0 in
14:14 34 °F 33.8 °F 29.8 in SSE 6.5 mph 6.5 mph 97% 0 in
14:19 34.2 °F 33.8 °F 29.8 in SSE 6.5 mph 6.5 mph 97% 0 in
14:24 34.2 °F 33.8 °F 29.8 in SSE 6.5 mph 6.5 mph 98% 0 in
14:29 34.2 °F 33.8 °F 29.8 in SSE 6.5 mph 6.5 mph 98% 0 in
14:34 34.2 °F 33.8 °F 29.8 in SSE 6.5 mph 6.5 mph 98% 0 in
14:39 34.2 °F 33.8 °F 29.8 in SSE 6.5 mph 6.5 mph 98% 0 in
14:44 34.3 °F 33.8 °F 29.8 in SSE 6.5 mph 6.5 mph 98% 0 in
14:49 34.5 °F 33.8 °F 29.8 in SSE 6.5 mph 6.5 mph 98% 0 in
14:54 34.5 °F 33.8 °F 29.8 in SSE 6.5 mph 6.5 mph 98% 0 in
14:59 34.9 °F 35.6 °F 29.8 in SSE 6.5 mph 6.5 mph 98% 0 in
15:04 34.9 °F 35.6 °F 29.8 in SSE 6.5 mph 6.5 mph 98% 0 in
15:09 35.1 °F 35.6 °F 29.8 in SSE 6.5 mph 6.5 mph 98% 0 in
15:15 35.4 °F 35.6 °F 29.8 in SSE 6.5 mph 6.5 mph 98% 0 in
15:20 35.6 °F 35.6 °F 29.8 in SSE 6.5 mph 6.5 mph 98% 0 in
15:25 35.6 °F 35.6 °F 29.8 in SSE 6.5 mph 6.5 mph 98% 0 in
15:30 35.6 °F 35.6 °F 29.8 in SSE 6.5 mph 6.5 mph 98% 0 in
15:35 35.6 °F 35.6 °F 29.8 in SSE 6.5 mph 6.5 mph 98% 0 in
15:40 35.8 °F 35.6 °F 29.8 in SSE 6.5 mph 6.5 mph 98% 0.01 in
15:45 35.8 °F 35.6 °F 29.8 in SSE 6.5 mph 6.5 mph 98% 0.01 in
15:50 35.8 °F 35.6 °F 29.8 in SSE 6.5 mph 6.5 mph 98% 0.01 in
15:55 36.1 °F 37.4 °F 29.8 in SSE 6.5 mph 6.5 mph 98% 0.02 in
16:00 36.1 °F 37.4 °F 29.8 in SSE 6.5 mph 6.5 mph 98% 0.02 in
16:05 36 °F 35.6 °F 29.8 in SSE 6.5 mph 6.5 mph 98% 0.02 in
16:10 35.8 °F 35.6 °F 29.8 in SSE 6.5 mph 6.5 mph 98% 0.02 in
16:15 35.8 °F 35.6 °F 29.8 in SSE 6.5 mph 6.5 mph 98% 0.02 in
16:20 36 °F 35.6 °F 29.8 in SSE 6.5 mph 6.5 mph 98% 0.02 in
16:25 36 °F 35.6 °F 29.8 in SSE 6.5 mph 6.5 mph 98% 0.02 in
16:30 35.8 °F 35.6 °F 29.8 in SSE 6.5 mph 6.5 mph 98% 0.02 in
16:35 35.6 °F 35.6 °F 29.8 in SSE 6.5 mph 6.5 mph 98% 0.03 in
16:40 35.6 °F 35.6 °F 29.8 in SSE 6.5 mph 6.5 mph 98% 0.02 in
16:45 35.4 °F 35.6 °F 29.8 in SSE 6.5 mph 6.5 mph 98% 0.02 in
16:50 35.6 °F 35.6 °F 29.8 in SSE 6.5 mph 6.5 mph 98% 0.02 in
16:55 35.8 °F 35.6 °F 29.8 in SSE 6.5 mph 6.5 mph 98% 0.01 in
17:00 36.1 °F 37.4 °F 29.8 in SSE 6.5 mph 6.5 mph 98% 0.01 in
17:06 36.3 °F 37.4 °F 29.8 in SSW 4.3 mph 4.3 mph 98% 0.01 in
17:11 36.3 °F 37.4 °F 29.8 in SSW 4.3 mph 4.3 mph 98% 0.01 in
17:16 36.3 °F 37.4 °F 29.8 in SSW 4.3 mph 4.3 mph 98% 0.01 in
17:21 36.1 °F 37.4 °F 29.8 in SSW 4.3 mph 4.3 mph 98% 0.01 in
17:26 36 °F 35.6 °F 29.8 in SSW 4.3 mph 4.3 mph 98% 0.01 in
17:31 35.8 °F 35.6 °F 29.8 in SSW 4.3 mph 4.3 mph 98% 0 in
17:36 35.6 °F 35.6 °F 29.8 in SSW 4.3 mph 4.3 mph 97% 0 in
17:41 35.4 °F 35.6 °F 29.8 in SSW 4.3 mph 4.3 mph 98% 0 in
17:46 35.2 °F 33.8 °F 29.8 in SSW 4.3 mph 4.3 mph 97% 0 in
17:51 35.1 °F 33.8 °F 29.8 in SSW 4.3 mph 4.3 mph 97% 0 in
17:56 35.1 °F 33.8 °F 29.8 in SSW 4.3 mph 4.3 mph 97% 0 in
18:01 35.1 °F 33.8 °F 29.8 in SSW 1.1 mph 1.1 mph 97% 0 in
18:06 35.1 °F 35.6 °F 29.8 in SSW 1.1 mph 1.1 mph 98% 0 in
18:12 35.1 °F 35.6 °F 29.8 in SSW 1.1 mph 1.1 mph 98% 0 in
18:17 35.1 °F 35.6 °F 29.8 in SSW 1.1 mph 1.1 mph 98% 0 in
18:22 35.1 °F 35.6 °F 29.8 in SSW 1.1 mph 1.1 mph 98% 0 in
18:27 35.1 °F 35.6 °F 29.8 in SSW 1.1 mph 1.1 mph 98% 0 in
18:32 35.1 °F 35.6 °F 29.8 in SSW 1.1 mph 1.1 mph 98% 0 in
18:37 34.9 °F 35.6 °F 29.8 in SSW 1.1 mph 1.1 mph 98% 0 in
18:42 34.9 °F 35.6 °F 29.8 in SSW 1.1 mph 1.1 mph 98% 0 in
18:47 34.9 °F 35.6 °F 29.8 in SSW 1.1 mph 1.1 mph 98% 0 in
18:52 34.7 °F 35.6 °F 29.8 in SSW 1.1 mph 1.1 mph 98% 0 in
18:57 34.5 °F 33.8 °F 29.8 in SSW 1.1 mph 1.1 mph 98% 0 in
19:02 34.3 °F 33.8 °F 29.8 in Calm     97% 0 in
19:07 34 °F 33.8 °F 29.8 in Calm     97% 0.01 in
19:12 33.8 °F 33.8 °F 29.8 in Calm     97% 0.01 in
19:17 33.6 °F 33.8 °F 29.9 in Calm     97% 0.01 in
19:22 33.6 °F 33.8 °F 29.9 in Calm     97% 0.01 in
19:27 33.8 °F 33.8 °F 29.9 in Calm     97% 0.01 in
19:32 34 °F 33.8 °F 29.9 in Calm     98% 0.01 in
19:37 34.3 °F 33.8 °F 29.9 in Calm     98% 0.01 in
19:42 34.5 °F 33.8 °F 29.9 in Calm     98% 0.01 in
19:47 34.7 °F 35.6 °F 29.8 in West 5.6 mph 5.6 mph 98% 0.01 in
19:52 34.9 °F 35.6 °F 29.8 in West 5.6 mph 5.6 mph 98% 0.01 in
19:57 35.2 °F 35.6 °F 29.8 in West 5.6 mph 5.6 mph 98% 0.01 in
20:02 35.6 °F 35.6 °F 29.9 in West 5.6 mph 5.6 mph 98% 0.01 in
20:07 35.6 °F 35.6 °F 29.9 in West 5.6 mph 5.6 mph 98% 0.01 in
20:12 35.6 °F 35.6 °F 29.9 in West 5.6 mph 5.6 mph 98% 0.01 in
20:18 35.8 °F 35.6 °F 29.9 in West 5.6 mph 5.6 mph 98% 0.01 in
20:23 35.6 °F 35.6 °F 29.9 in West 5.6 mph 5.6 mph 98% 0.01 in
20:28 35.8 °F 35.6 °F 29.9 in West 5.6 mph 5.6 mph 98% 0.01 in
20:33 35.8 °F 35.6 °F 29.9 in West 5.6 mph 5.6 mph 98% 0.02 in
20:38 36 °F 35.6 °F 29.9 in West 5.6 mph 5.6 mph 98% 0.02 in
20:43 36 °F 35.6 °F 29.9 in West 5.6 mph 5.6 mph 98% 0.03 in
20:48 36 °F 35.6 °F 29.9 in West 5.6 mph 5.6 mph 98% 0.03 in
20:53 36 °F 35.6 °F 29.9 in West 5.6 mph 5.6 mph 98% 0.05 in
20:58 36 °F 35.6 °F 29.9 in West 5.6 mph 5.6 mph 98% 0.05 in
21:03 36 °F 35.6 °F 29.9 in West 5.6 mph 5.6 mph 98% 0.05 in
21:08 35.8 °F 35.6 °F 29.9 in West 5.6 mph 5.6 mph 98% 0.03 in
21:13 35.6 °F 35.6 °F 29.9 in West 5.6 mph 5.6 mph 98% 0.05 in
21:18 35.6 °F 35.6 °F 29.9 in West 5.6 mph 5.6 mph 98% 0.05 in
21:23 35.6 °F 35.6 °F 29.9 in West 5.6 mph 5.6 mph 98% 0.05 in
21:28 35.6 °F 35.6 °F 29.9 in West 5.6 mph 5.6 mph 98% 0.05 in
21:33 35.6 °F 35.6 °F 29.9 in West 5.6 mph 5.6 mph 98% 0.04 in
21:38 35.4 °F 35.6 °F 29.9 in Calm     98% 0.04 in
21:43 35.4 °F 35.6 °F 29.9 in Calm     98% 0.03 in
21:48 35.4 °F 35.6 °F 29.9 in Calm     98% 0.01 in
21:54 35.4 °F 35.6 °F 29.9 in Calm     98% 0.01 in
21:59 35.4 °F 35.6 °F 29.9 in Calm     98% 0.01 in
22:04 35.2 °F 35.6 °F 29.9 in Calm     98% 0.01 in
22:09 35.2 °F 35.6 °F 29.9 in Calm     98% 0.01 in
22:14 35.4 °F 35.6 °F 29.9 in West 1.6 mph 1.6 mph 98% 0.01 in
22:19 35.8 °F 35.6 °F 29.9 in West 1.6 mph 1.6 mph 98% 0.01 in
22:24 36.1 °F 37.4 °F 29.9 in West 1.6 mph 1.6 mph 98% 0.01 in
22:29 36.1 °F 37.4 °F 29.9 in West 1.6 mph 1.6 mph 98% 0.01 in
22:34 36.3 °F 37.4 °F 29.9 in West 1.6 mph 1.6 mph 98% 0.01 in
22:39 36.3 °F 37.4 °F 29.9 in West 1.6 mph 1.6 mph 98% 0.03 in
22:44 36.5 °F 37.4 °F 29.9 in West 4.3 mph 4.3 mph 98% 0.06 in
22:49 36.5 °F 37.4 °F 29.9 in West 4.3 mph 4.3 mph 98% 0.06 in
22:54 36.5 °F 37.4 °F 29.9 in West 4.3 mph 4.3 mph 98% 0.06 in
22:59 36.7 °F 37.4 °F 29.9 in West 4.3 mph 4.3 mph 98% 0.06 in
23:04 36.7 °F 37.4 °F 29.9 in West 4.3 mph 4.3 mph 98% 0.06 in
23:09 36.9 °F 37.4 °F 29.9 in West 4.3 mph 4.3 mph 98% 0.06 in
23:14 37 °F 37.4 °F 29.9 in West 4.3 mph 4.3 mph 98% 0.06 in
23:19 37 °F 37.4 °F 29.9 in West 4.3 mph 4.3 mph 98% 0.06 in
23:24 36.9 °F 37.4 °F 29.9 in West 4.3 mph 4.3 mph 98% 0.06 in
23:29 36.9 °F 37.4 °F 29.9 in West 4.3 mph 4.3 mph 98% 0.06 in
23:34 36.9 °F 37.4 °F 29.9 in West 4.3 mph 4.3 mph 98% 0.05 in
23:39 36.9 °F 37.4 °F 29.9 in West 4.3 mph 4.3 mph 98% 0.03 in
23:44 36.7 °F 37.4 °F 29.9 in West 4.3 mph 4.3 mph 98% 0.03 in
23:49 36.7 °F 37.4 °F 29.9 in West 4.3 mph 4.3 mph 98% 0.03 in
23:54 36.7 °F 37.4 °F 29.9 in West 4.3 mph 4.3 mph 98% 0.04 in
23:59 36.5 °F 37.4 °F 29.9 in West 4.3 mph 4.3 mph 98% 0.04 in
Données Historique de Météo Turbie

Mise a jour : 21/05/2018 16:26:12
Généré par Cumulus 1.9.4 (1099)